GW4758 Weather Reports


time (UTC)temp
C
wind
direction
speed
KPH
gust
KPH
rain 1hr
cm
rain 24hr
cm
rain mn
cm
humidity
%
barometer
mb
20260510234554 26 141 1.6 6.4 0.00 0.00 0.00 38 1015.2
20260510233050 26 149 3.2 6.4 0.00 0.00 0.00 36 1015.1
20260510231555 26 150 4.8 9.7 0.00 0.00 0.00 35 1014.9
20260510230056 26 158 4.8 14.5 0.00 0.00 0.00 35 1014.8
20260510224553 27 189 4.8 14.5 0.00 0.00 0.00 33 1014.9
20260510223155 27 179 8.0 20.9 0.00 0.00 0.00 33 1014.7
20260510221552 27 189 6.4 17.7 0.00 0.00 0.00 32 1014.8
20260510220057 27 160 8.0 16.1 0.00 0.00 0.00 32 1014.7
20260510214554 27 136 4.8 17.7 0.00 0.00 0.00 30 1014.6
20260510213054 27 163 3.2 14.5 0.00 0.00 0.00 32 1014.6
20260510211551 27 225 4.8 12.9 0.00 0.00 0.00 32 1014.6
20260510210057 27 168 6.4 17.7 0.00 0.00 0.00 31 1014.7
20260510204552 27 154 6.4 16.1 0.00 0.00 0.00 32 1014.8
20260510203052 27 104 9.7 17.7 0.00 0.00 0.00 32 1014.7
20260510201551 27 156 11.3 20.9 0.00 0.00 0.00 31 1015.0
20260510200056 27 203 4.8 16.1 0.00 0.00 0.00 32 1015.1
20260510194558 27 0 1.6 16.1 0.00 0.00 0.00 31 1015.3
20260510193056 26 259 1.6 14.5 0.00 0.00 0.00 30 1015.5
20260510191556 26 266 9.7 17.7 0.00 0.00 0.00 31 1015.5
20260510190057 26 135 6.4 16.1 0.00 0.00 0.00 33 1015.6
20260510184553 26 63 8.0 16.1 0.00 0.00 0.00 30 1015.7
20260510183056 26 334 8.0 19.3 0.00 0.00 0.00 31 1015.7
20260510181555 26 93 1.6 14.5 0.00 0.00 0.00 34 1015.8
20260510180056 26 301 3.2 12.9 0.00 0.00 0.00 32 1016.0
20260510174556 26 147 3.2 12.9 0.00 0.00 0.00 30 1016.1
20260510173053 25 262 4.8 19.3 0.00 0.00 0.00 30 1016.3
20260510171604 26 219 4.8 14.5 0.00 0.00 0.00 32 1016.5
20260510170052 25 137 8.0 14.5 0.00 0.00 0.00 32 1016.6
20260510164552 26 148 3.2 8.0 0.00 0.00 0.00 33 1016.4
20260510163057 25 136 4.8 9.7 0.00 0.00 0.00 31 1016.6
20260510161558 24 111 8.0 12.9 0.00 0.00 0.00 35 1016.9
20260510160052 24 40 6.4 9.7 0.00 0.00 0.00 41 1016.8
20260510154602 24 327 6.4 12.9 0.00 0.00 0.00 42 1016.8
20260510153057 23 40 6.4 14.5 0.00 0.00 0.00 43 1016.9
20260510151555 23 51 6.4 17.7 0.00 0.00 0.00 45 1017.1
20260510150057 22 355 4.8 14.5 0.00 0.00 0.00 46 1017.1
20260510144610 22 45 6.4 11.3 0.00 0.00 0.00 45 1017.0
20260510143108 22 80 6.4 14.5 0.00 0.00 0.00 47 1017.0
20260510141603 22 96 0.0 6.4 0.00 0.00 0.00 51 1016.9
20260510140052 22 330 3.2 6.4 0.00 0.00 0.00 52 1017.0
20260510134612 20 323 1.6 8.0 0.00 0.00 0.00 63 1017.0
20260510133055 20 243 3.2 8.0 0.00 0.00 0.00 67 1016.9
20260510131556 19 229 1.6 3.2 0.00 0.00 0.00 70 1016.7
20260510130057 18 243 1.6 4.8 0.00 0.00 0.00 76 1016.6
20260510124602 17 239 0.0 4.8 0.00 0.00 0.00 79 1016.6
20260510123057 16 276 0.0 1.6 0.00 0.00 0.00 84 1016.5
20260510121553 15 0 0.0 3.2 0.00 0.00 0.00 87 1016.3
20260510120053 14 234 1.6 4.8 0.00 0.00 0.00 90 1016.0
20260510114554 13 0 0.0 0.0 0.00 0.00 0.00 91 1015.8
20260510113055 13 0 0.0 0.0 0.00 0.00 0.00 93 1015.5
20260510111604 12 0 0.0 0.0 0.00 0.00 0.00 95 1015.3
20260510110052 12 0 0.0 0.0 0.00 0.00 0.00 95 1015.2
20260510104612 11 0 0.0 0.0 0.00 0.00 0.00 96 1014.9
20260510103053 11 0 0.0 0.0 0.00 0.00 0.00 95 1014.6
20260510101553 11 0 0.0 0.0 0.00 0.00 0.00 93 1014.2
20260510100122 12 0 0.0 0.0 0.00 0.00 0.00 93 1014.1
20260510094552 13 0 0.0 0.0 0.00 0.00 0.00 92 1013.7
20260510093052 13 0 0.0 0.0 0.00 0.00 0.00 95 1013.6
20260510091550 12 0 0.0 0.0 0.00 0.00 0.00 95 1013.6
20260510090110 13 0 0.0 0.0 0.00 0.00 0.00 95 1013.5
20260510084553 13 0 0.0 0.0 0.00 0.00 0.00 95 1013.4
20260510083051 13 0 0.0 1.6 0.00 0.00 0.00 94 1013.3
20260510081606 13 247 1.6 3.2 0.00 0.00 0.00 95 1012.9
20260510080055 13 231 1.6 3.2 0.00 0.00 0.00 94 1013.0
20260510074559 14 0 0.0 0.0 0.00 0.00 0.00 93 1012.8
20260510073051 14 0 0.0 1.6 0.00 0.00 0.00 93 1012.7
20260510071552 14 0 0.0 0.0 0.00 0.00 0.00 93 1012.6
20260510070057 15 0 0.0 1.6 0.00 0.00 0.00 93 1012.6
20260510064552 15 276 0.0 3.2 0.00 0.00 0.00 94 1012.6
20260510063104 15 337 0.0 0.0 0.00 0.00 0.00 94 1012.6
20260510061551 15 0 0.0 0.0 0.00 0.00 0.00 93 1012.7
20260510060058 15 0 0.0 1.6 0.00 0.00 0.00 93 1012.7
20260510054557 15 0 0.0 0.0 0.00 0.00 0.00 93 1013.0
20260510053058 15 0 0.0 1.6 0.00 0.00 0.00 93 1012.8
20260510051656 15 157 3.2 4.8 0.00 0.00 0.00 92 1013.0
20260510050058 16 0 0.0 0.0 0.00 0.00 0.00 91 1013.1
20260510044557 16 0 0.0 0.0 0.00 0.00 0.00 91 1012.9
20260510043143 16 0 0.0 0.0 0.00 0.00 0.00 90 1013.0
20260510041556 16 0 0.0 4.8 0.00 0.00 0.00 89 1013.1
20260510040058 16 186 3.2 6.4 0.00 0.00 0.00 90 1013.2
20260510034555 17 0 0.0 0.0 0.00 0.00 0.00 87 1013.1
20260510033056 17 0 0.0 1.6 0.00 0.00 0.00 88 1013.0
20260510031624 17 0 0.0 1.6 0.00 0.00 0.00 87 1013.2
20260510030053 17 0 0.0 0.0 0.00 0.00 0.00 85 1013.1
20260510024551 17 0 0.0 1.6 0.00 0.00 0.00 85 1013.0
20260510023059 18 153 0.0 3.2 0.00 0.00 0.00 84 1013.0
20260510021558 18 172 0.0 4.8 0.00 0.00 0.00 83 1012.8
20260510020100 18 189 1.6 6.4 0.00 0.00 0.00 81 1012.6
20260510014553 19 184 3.2 8.0 0.00 0.00 0.00 80 1012.3
20260510013051 19 246 1.6 11.3 0.00 0.00 0.00 79 1012.2
20260510011607 20 201 1.6 11.3 0.00 0.00 0.00 78 1012.0
20260510010105 20 170 3.2 8.0 0.00 0.00 0.00 78 1011.8
20260510004547 20 277 4.8 8.0 0.00 0.00 0.00 78 1011.5
20260510003101 20 142 1.6 8.0 0.00 0.00 0.00 78 1011.0
20260510001551 20 150 4.8 8.0 0.00 0.00 0.00 77 1011.0
20260510000052 20 160 4.8 8.0 0.00 0.00 0.00 76 1010.9